Weather History for KSRC - March, 2013

Change the Weather History Date:

Tuesday, March 5, 2013

  Actual Average Record
Temperature  
Mean Temperature 46 °F -  
Max Temperature 54 °F 60 °F 78 °F (1956)
Min Temperature 37 °F 35 °F 13 °F (1960)
Degree Days  
Heating Degree Days 19    
Moisture  
Dew Point 33 °F    
Average Humidity 61    
Maximum Humidity 100    
Minimum Humidity 29    
Precipitation  
Precipitation 0.04 in - - ()
Sea Level Pressure  
Sea Level Pressure 30.04 in    
Wind  
Wind Speed 8 mph (NW)    
Max Wind Speed 17 mph    
Max Gust Speed 29 mph    
Visibility 10 miles    
Events Rain    
Averages and records for this station are not official NWS values.
T = Trace of Precipitation, MM = Missing Value Source: NWS Daily Summary

Daily Weather History Graph

Daily Weather History Graph

Search for Another Location

Airport or City:

Trip Planner

Search our weather history database for the weather conditions in past years. The results will help you decide how hot, cold, wet, or windy it might be!

Date:

Astronomy

Mar. 05, 2013 Rise Set
Actual Time 6:30 AM CST 6:06 PM CST
Civil Twilight 6:05 AM CST 6:31 PM CST
Nautical Twilight 5:36 AM CST 7:01 PM CST
Astronomical Twilight 5:06 AM CST 7:30 PM CST
Moon 1:33 AM CST (3/5) 11:55 AM CST (3/5)
Length of Visible Light 12h 26m
Length of Day
11h 35m
Last Quarter, 40% of the Moon is Illuminated
Mar 5
Last Quarter
Mar 11
New
Mar 19
First Quarter
Mar 27
Full
Apr 2
Last Quarter

Hourly Weather History & Observations

Time (CST) Temp. Windchill Dew Point Humidity Pressure Visibility Wind Dir Wind Speed Gust Speed Precip Events Conditions
1:56 AM 50.0 °F - 50.0 °F 100% 29.78 in 10.0 mi Calm Calm - N/A   Mostly Cloudy
2:56 AM 52.0 °F - 48.9 °F 89% 29.79 in 10.0 mi Calm Calm - N/A   Mostly Cloudy
3:09 AM 51.8 °F - 48.2 °F 88% 29.76 in 10.0 mi Calm Calm - N/A   Scattered Clouds
3:56 AM 50.9 °F - 47.8 °F 89% 29.81 in 10.0 mi NW 4.6 mph - N/A   Clear
4:49 AM 51.8 °F - 46.4 °F 82% 29.83 in 10.0 mi North 6.9 mph - N/A   Mostly Cloudy
4:56 AM 52.0 °F - 46.9 °F 83% 29.86 in 10.0 mi NW 6.9 mph - N/A   Mostly Cloudy
5:56 AM 46.4 °F 39.8 °F 41.0 °F 81% 29.91 in 4.0 mi NNW 16.1 mph 21.9 mph N/A Rain Rain
6:10 AM 44.6 °F 38.1 °F 39.2 °F 81% 29.91 in 7.0 mi NNW 13.8 mph 26.5 mph 0.00 in Rain Light Rain
6:56 AM 41.9 °F 35.4 °F 38.8 °F 89% 29.96 in 8.0 mi NW 11.5 mph - 0.04 in Rain Light Rain
7:56 AM 41.9 °F 35.4 °F 36.0 °F 79% 30.03 in 10.0 mi NW 11.5 mph 19.6 mph 0.00 in   Mostly Cloudy
8:18 AM 42.8 °F 36.2 °F 35.6 °F 76% 30.03 in 10.0 mi NNW 12.7 mph 24.2 mph N/A   Overcast
8:56 AM 41.9 °F 35.4 °F 34.9 °F 76% 30.06 in 10.0 mi NNW 11.5 mph 24.2 mph N/A   Overcast
9:56 AM 43.9 °F 36.2 °F 34.0 °F 68% 30.09 in 10.0 mi NW 17.3 mph 24.2 mph N/A   Overcast
10:05 AM 44.6 °F 37.8 °F 33.8 °F 66% 30.08 in 10.0 mi NW 15.0 mph 21.9 mph N/A   Overcast
10:56 AM 45.9 °F 39.1 °F 32.0 °F 58% 30.10 in 10.0 mi NW 16.1 mph 26.5 mph N/A   Mostly Cloudy
11:56 AM 50.9 °F - 30.0 °F 45% 30.09 in 10.0 mi NW 13.8 mph 25.3 mph N/A   Scattered Clouds
12:56 PM 52.9 °F - 30.0 °F 42% 30.09 in 10.0 mi NW 12.7 mph 21.9 mph N/A   Clear
1:56 PM 54.9 °F - 26.1 °F 33% 30.08 in 10.0 mi WNW 13.8 mph 26.5 mph N/A   Clear
2:56 PM 54.9 °F - 23.0 °F 29% 30.11 in 10.0 mi NW 11.5 mph 21.9 mph N/A   Clear
3:56 PM 52.0 °F - 21.0 °F 30% 30.12 in 10.0 mi NNW 17.3 mph 23.0 mph N/A   Clear
4:56 PM 48.9 °F - 18.1 °F 30% 30.15 in 10.0 mi NW 15.0 mph 28.8 mph N/A   Clear
5:56 PM 46.9 °F - 18.1 °F 32% 30.17 in 10.0 mi NNW 15.0 mph 24.2 mph N/A   Clear
6:56 PM 45.9 °F 41.2 °F 19.0 °F 34% 30.19 in 10.0 mi NNW 9.2 mph - N/A   Clear
7:56 PM 43.9 °F 38.8 °F 21.0 °F 40% 30.21 in 10.0 mi NNW 9.2 mph 17.3 mph N/A   Clear
8:56 PM 42.8 °F 38.6 °F 21.2 °F 42% 30.23 in 10.0 mi NW 6.9 mph - N/A   Clear
9:56 PM 41.9 °F 35.0 °F 23.0 °F 47% 30.27 in 10.0 mi NNW 12.7 mph 19.6 mph N/A   Clear
10:56 PM 38.8 °F 34.6 °F 24.1 °F 55% 30.28 in 10.0 mi NW 5.8 mph - N/A   Clear
11:56 PM 37.4 °F 30.8 °F 23.0 °F 56% 30.26 in 10.0 mi NNW 9.2 mph - N/A   Clear